Find Starlink 2381

NORAD ID: 47800 Int'l Des: 2021-018 Owner: SPXS Country: US Constellation: starlink operational
LEOCIRCULARSTARLINK_TYPE

リアルタイム位置

3D地球を読み込み中...

Starlink 2381について

説明を読み込み中...

次回通過

Passes for default location (London). Set your location on the main map for personalized predictions.

高度履歴

Loading altitude history...

軌道要素

1 47800U 21018P 26122.16670139 .00020914 00000-0 73533-3 0 9997
2 47800 53.1495 350.3453 0001141 91.7415 228.1467 15.29343359 5734
Epoch: May 2, 2026 • Age: 11 hours

現在のステータス

高度 478.2 km
速度 7.63 km/s
衛星直下点 3.38°N, 97.44°W
打ち上げ日 Mar 11, 2021
運用期間 5.1 years
タイプ internet

技術仕様

分類 Payload
質量 260.00 kg
乾燥質量 248.00 kg
総質量 260.00 kg
長さ 0.20 m
直径 2.80 m
スパン 9.00 m
形状 Box + pan
製造者 SPXS
バスタイプ Starlink
フェーズステータス In Orbit
所有者/国 SPXS/US

Most Searched